STARLINK-11078, 58710

Orbit data source: Space-Track

STARLINK-11078, 58710 is a payload satellite owned by SpaceX/Seattle (US) in LEO that was launched on Wed, 03 Jan 2024 UTC via an FALCON 9 launch vehicle from the Air Force Western Test Range (AFWTR). Payload-class satellites include a variety of spacecraft equipped with specific instruments for various scientific and technological missions. These include communications satellites like Starlink; space stations such as the ISS; scientific satellites like the Hubble; Earth observation satellites from companies like Planet Labs, Umbra, and HawkEye 360; GPS; miniature CubeSats for education and research; and military/defense satellites.

Loading next visibility...
Identifier
58710, 2024-002F
Orbit
LEO
Country
Flag of USUS
Related business
Manufacturer
SpaceX/Seattle
Mission
Operational Commercial Communications
Bus & Motor
STARLINK V2MD, Unknown motor
Mass
960 kg wet, ~910 kg dry
Launch date (UTC)
2024-01-03 (2 years ago)
Launch vehicle
FALCON 9
Launch site
Air Force Western Test Range (AFWTR)
Object type
Payload
Rocket body
Debris
Shape & HBR
Box + 2 Pan, 18.1 m
Radar Cross Section
36.964 m², Large (>1 m²)

Expand to show TLE details & history
Last TLE update: 3 days ago

TLE from 3 days ago
0 STARLINK-11078
1 58710U 24002F   26170.20366829 -.00000247  00000-0  28241-5 0  9997
2 58710  53.1601 133.4219 0001325  92.5175 267.5994 15.69700793142389
Epoch: 2026-06-19T04:53Z
TLE epoch observation values (Epoch: 2026-06-19T04:53:16.940Z)
Latitude
-0.00006°
Longitude
152.66526°
Altitude
360.706 km
Speed
7.694 km/s
True Right ascension
08h 53m 41s
True Declination
0° 00' 00"
Sunlit
Object was in daylight at epoch
Visualization orbit readout
Latitude
Unknown
Longitude
Unknown
Altitude
Unknown
Speed
Unknown
Apparent Right ascension
Unknown
Apparent Declination
Unknown
Sunlit
N/A
Visualization observer readout
Local Sidereal Time
21:36:41
Azimuth
Unknown
Elevation
Unknown
Doppler factor
Unknown
Orbital elements
Apogee altitude
360.907 km
Perigee altitude
359.121 km
Semi-major axis
6,738.151 km
Eccentricity
0.00013
Inclination
53.1601°
RAAN
133.4219°
Arg. of periapsis
92.5175°
True anomaly
267.58423°
Mean anomaly
267.5994°
Eccentric anomaly
267.59182°
Mean motion
3.92403 °/min
Orbital period
91.74 mins
BSTAR
0.0000028241
Loading maneuver chart data...
Computing Atmospheric mass density...
Loading historical data...
Loading historical data...
Loading historical data...
Loading historical data...
Loading historical data...
Loading historical data...
Loading historical data...

Documentation

Showing up to 5 results
|